contact:dominique.lefevre@mio.osupytheas.fr, maurice.libes@osupytheas.fr
Project:EMSO Ligure-ouest http://www.emso-fr.org/EMSO-France
Sensor Aquadopp, line 13 Serial AQD14315 
DOI : "https://doi.org/10.17882/74513; https://doi.org/10.17882/83244" 
Title:EMSO Ligure Ouest : Data ligne ALBATROSS capteur AQUADOPP - deploiement 2021
Id,Date,Profondeur,Latitude,Longitude,X_East,Y_North,Z_Up,Amplitude_X,Amplitude_Y,Amplitude_Z,Batterie,SoundSpeed,Heading,Pitch,Roll,Pressure,Temperature,Speed,Direction
, , m, degrees North, degrees East, m.s-1, m.s-1,m.s-1, 1, 1, 1, Volt, m.s-1, degree, degree, degree, dbar, degree_C, m.s-1, degree
13,2022-09-15T23:30:00,2400.0,42.79,6.0312,-0.004,0.007,0.005,70.0,59.0,63.0,12.9,1504.9,134.0,0.1,-0.2,2393.109,13.34,0.008,330.3
13,2022-09-16T00:00:00,2400.0,42.79,6.0312,-0.011,-0.006,-0.014,66.0,59.0,63.0,12.9,1504.9,132.7,0.2,-0.2,2393.072,13.34,0.012,241.4
13,2022-09-16T00:30:00,2400.0,42.79,6.0312,-0.006,0.0,-0.003,68.0,59.0,60.0,12.9,1504.9,121.1,0.2,-0.4,2393.082,13.34,0.006,270.0
13,2022-09-16T01:00:00,2400.0,42.79,6.0312,-0.012,-0.003,0.009,63.0,59.0,61.0,12.9,1504.9,117.8,0.1,-0.3,2393.077,13.34,0.012,256.0
13,2022-09-16T01:30:00,2400.0,42.79,6.0312,-0.037,0.025,-0.032,65.0,56.0,59.0,12.9,1504.9,118.2,0.1,-0.3,2393.02,13.34,0.044,304.0
13,2022-09-16T02:00:00,2400.0,42.79,6.0312,-0.007,0.01,-0.012,64.0,59.0,62.0,12.9,1504.9,117.5,0.1,-0.2,2393.037,13.34,0.012,325.0
13,2022-09-16T02:30:00,2400.0,42.79,6.0312,-0.024,0.0,-0.017,66.0,59.0,59.0,12.9,1504.9,118.6,0.2,-0.3,2393.052,13.34,0.024,270.0
13,2022-09-16T03:00:00,2400.0,42.79,6.0312,-0.031,-0.008,0.013,62.0,56.0,61.0,12.9,1504.9,117.8,0.2,-0.3,2392.988,13.34,0.032,255.5
13,2022-09-16T03:30:00,2400.0,42.79,6.0312,-0.031,-0.002,-0.006,63.0,59.0,64.0,12.9,1504.9,118.2,0.2,-0.2,2393.019,13.34,0.031,266.3
13,2022-09-16T04:00:00,2400.0,42.79,6.0312,-0.017,-0.014,0.001,68.0,59.0,61.0,12.9,1504.9,119.5,0.1,-0.2,2393.012,13.34,0.022,230.5
13,2022-09-16T04:30:00,2400.0,42.79,6.0312,-0.008,0.016,-0.004,65.0,59.0,61.0,12.9,1504.9,121.7,0.2,-0.2,2393.004,13.34,0.017,333.4
13,2022-09-16T05:00:00,2400.0,42.79,6.0312,-0.008,0.003,-0.05,63.0,59.0,60.0,12.9,1504.9,121.3,0.1,-0.3,2392.992,13.34,0.008,290.6
13,2022-09-16T05:30:00,2400.0,42.79,6.0312,-0.003,0.008,-0.01,64.0,55.0,59.0,12.9,1504.9,121.0,0.2,-0.3,2393.042,13.34,0.008,339.4
13,2022-09-16T06:00:00,2400.0,42.79,6.0312,-0.021,0.02,-0.004,67.0,59.0,60.0,12.9,1504.9,117.5,0.1,-0.3,2393.051,13.34,0.028,313.6
13,2022-09-16T06:30:00,2400.0,42.79,6.0312,-0.01,0.009,-0.018,69.0,57.0,58.0,12.9,1504.9,116.8,0.2,-0.2,2393.053,13.34,0.013,312.0
13,2022-09-16T07:00:00,2400.0,42.79,6.0312,-0.003,-0.001,0.019,64.0,55.0,61.0,12.9,1504.9,117.8,0.1,-0.3,2393.0,13.34,0.003,251.6
13,2022-09-16T07:30:00,2400.0,42.79,6.0312,-0.008,0.015,-0.002,64.0,59.0,64.0,12.9,1504.9,117.7,0.1,-0.3,2393.049,13.34,0.017,331.9
13,2022-09-16T08:00:00,2400.0,42.79,6.0312,0.004,0.012,-0.013,66.0,60.0,63.0,12.9,1504.9,117.3,0.1,-0.3,2393.064,13.34,0.012,18.4
13,2022-09-16T08:30:00,2400.0,42.79,6.0312,0.003,-0.002,-0.019,66.0,57.0,62.0,12.9,1504.9,118.2,0.2,-0.3,2393.097,13.34,0.003,123.7
13,2022-09-16T09:00:00,2400.0,42.79,6.0312,-0.001,-0.007,0.018,61.0,60.0,66.0,12.9,1504.9,119.5,0.2,-0.4,2393.137,13.34,0.007,188.1
13,2022-09-16T09:30:00,2400.0,42.79,6.0312,-0.01,-0.01,-0.007,63.0,56.0,59.0,12.9,1504.9,121.6,0.1,-0.3,2393.107,13.34,0.014,225.0
13,2022-09-16T10:00:00,2400.0,42.79,6.0312,-0.001,0.024,-0.021,71.0,57.0,61.0,12.9,1504.9,121.8,0.2,-0.3,2393.103,13.34,0.024,357.6
13,2022-09-16T10:30:00,2400.0,42.79,6.0312,0.011,0.011,-0.026,74.0,56.0,59.0,12.9,1504.9,124.4,0.2,-0.3,2393.137,13.34,0.015,45.0
13,2022-09-16T11:00:00,2400.0,42.79,6.0312,-0.011,0.005,-0.016,64.0,58.0,59.0,12.9,1504.9,121.9,0.3,-0.3,2393.1,13.34,0.012,294.4
13,2022-09-16T11:30:00,2400.0,42.79,6.0312,0.007,-0.005,0.006,62.0,57.0,55.0,12.9,1504.9,118.9,0.2,-0.3,2393.144,13.34,0.008,125.5
13,2022-09-16T12:00:00,2400.0,42.79,6.0312,0.0,0.01,0.006,64.0,60.0,54.0,12.9,1504.9,119.5,0.1,-0.4,2393.102,13.34,0.01,0.0
13,2022-09-16T13:00:00,2400.0,42.79,6.0312,-0.011,0.012,0.011,70.0,59.0,58.0,12.9,1504.9,120.9,0.2,-0.3,2393.089,13.34,0.016,317.5
13,2022-09-16T13:30:00,2400.0,42.79,6.0312,-0.015,0.015,0.024,67.0,55.0,59.0,12.9,1504.9,120.8,0.1,-0.3,2393.074,13.34,0.021,315.0
13,2022-09-16T14:00:00,2400.0,42.79,6.0312,-0.019,0.009,-0.007,72.0,61.0,57.0,12.9,1504.9,119.7,0.2,-0.3,2393.089,13.34,0.021,295.3
13,2022-09-16T14:30:00,2400.0,42.79,6.0312,-0.016,0.021,0.004,65.0,56.0,65.0,12.9,1504.9,118.0,0.2,-0.3,2393.089,13.34,0.026,322.7
13,2022-09-16T15:00:00,2400.0,42.79,6.0312,-0.003,-0.024,-0.006,67.0,58.0,60.0,12.9,1504.9,118.1,0.3,-0.3,2393.047,13.34,0.024,187.1
13,2022-09-16T15:30:00,2400.0,42.79,6.0312,-0.01,-0.001,0.014,67.0,57.0,55.0,12.9,1504.9,117.7,0.3,-0.2,2393.028,13.34,0.01,264.3
13,2022-09-16T16:00:00,2400.0,42.79,6.0312,0.006,0.011,0.006,66.0,55.0,54.0,12.9,1504.9,118.6,0.2,-0.3,2393.055,13.34,0.012,28.6
13,2022-09-16T16:30:00,2400.0,42.79,6.0312,-0.007,-0.028,-0.005,63.0,56.0,56.0,12.9,1504.9,119.8,0.2,-0.4,2393.013,13.34,0.028,194.0
13,2022-09-16T17:00:00,2400.0,42.79,6.0312,0.019,-0.015,0.009,61.0,55.0,58.0,12.9,1504.9,116.5,0.1,-0.2,2393.002,13.34,0.024,128.3
13,2022-09-16T17:30:00,2400.0,42.79,6.0312,0.006,-0.027,-0.012,62.0,57.0,59.0,12.9,1504.9,115.8,0.2,-0.3,2393.011,13.34,0.027,167.5
13,2022-09-16T18:00:00,2400.0,42.79,6.0312,0.0,0.0,0.0,64.0,56.0,57.0,12.9,1504.9,116.4,0.2,-0.4,2393.058,13.34,0.0,0.0
13,2022-09-16T18:30:00,2400.0,42.79,6.0312,-0.009,0.0,-0.008,60.0,55.0,57.0,12.9,1504.9,117.5,0.2,-0.1,2393.038,13.34,0.009,270.0
13,2022-09-16T19:00:00,2400.0,42.79,6.0312,-0.019,-0.008,0.006,65.0,58.0,58.0,12.9,1504.9,117.3,0.2,-0.4,2393.003,13.34,0.02,247.2
13,2022-09-16T19:30:00,2400.0,42.79,6.0312,-0.026,-0.007,0.003,64.0,60.0,59.0,12.9,1504.9,119.8,0.1,-0.3,2392.992,13.34,0.026,254.9
13,2022-09-16T20:00:00,2400.0,42.79,6.0312,-0.009,-0.002,-0.011,65.0,57.0,60.0,12.9,1504.9,126.0,0.1,-0.3,2393.057,13.34,0.009,257.5
13,2022-09-16T20:30:00,2400.0,42.79,6.0312,-0.036,-0.015,-0.02,67.0,58.0,60.0,12.9,1504.9,131.6,0.2,-0.2,2393.034,13.34,0.039,247.4
13,2022-09-16T21:00:00,2400.0,42.79,6.0312,-0.027,0.012,-0.018,65.0,59.0,60.0,12.9,1504.9,134.7,0.2,-0.3,2393.069,13.34,0.029,294.0
13,2022-09-16T21:30:00,2400.0,42.79,6.0312,-0.013,0.002,0.014,67.0,56.0,60.0,12.9,1504.9,138.1,0.0,-0.3,2393.091,13.34,0.013,278.7
13,2022-09-16T22:00:00,2400.0,42.79,6.0312,-0.028,0.007,0.0,63.0,55.0,60.0,12.9,1504.9,132.5,0.2,-0.3,2393.082,13.34,0.028,284.0
13,2022-09-16T22:30:00,2400.0,42.79,6.0312,-0.013,-0.013,-0.005,60.0,55.0,58.0,12.9,1504.9,107.1,0.1,-0.3,2393.091,13.34,0.018,225.0
13,2022-09-16T23:00:00,2400.0,42.79,6.0312,-0.026,0.006,-0.003,60.0,54.0,58.0,12.9,1504.9,114.0,0.1,-0.3,2393.072,13.34,0.026,283.0
